Theta_e
355 349 344 346 348 351 349 349 349 350 351 350 350 350 350 349 349 348 349 351 350 349 349 349 348 347 348 352 354 352 351 352 351 353 354 354 353 351 352 353 352 352 352 352 352 352 352 353 353 354 354 354 353 353 353 353 352 352 353 352 351 350 352 352 352 351 351 352 352 351 352 352 352 352 352 352 351 350 350 350 350 350 350 351 351
354 350 345 346 348 350 350 351 351 352 351 350 351 351 350 349 351 352 351 351 349 349 350 351 350 349 350 352 353 353 352 351 351 353 353 353 353 352 353 352 351 351 351 352 352 352 352 353 353 354 354 353 353 353 353 353 352 352 353 351 349 349 350 352 352 352 352 353 352 351 352 352 351 352 352 352 351 350 350 351 350 350 351 351 351
354 351 345 346 349 351 352 352 351 351 350 350 350 348 349 348 351 352 351 350 348 349 351 351 352 352 352 353 352 353 353 351 352 353 352 352 352 352 352 350 350 350 351 352 352 352 351 352 353 353 354 354 353 353 352 353 352 352 352 351 350 350 351 352 352 351 352 352 351 350 350 351 351 351 352 352 352 351 351 351 350 349 350 350 350
353 349 343 346 350 351 352 350 349 350 349 349 347 346 347 348 349 350 351 350 349 350 351 351 351 352 352 353 352 353 353 353 353 352 352 352 352 352 351 349 350 350 351 352 352 352 351 351 352 352 353 353 352 352 352 352 352 352 351 350 350 350 350 352 353 352 351 352 352 351 349 350 350 351 351 351 351 351 351 351 351 350 350 350 350
352 349 346 349 349 350 351 350 350 350 349 349 348 348 349 349 348 349 351 351 350 350 351 351 351 352 352 352 351 353 353 353 353 352 351 352 352 351 350 350 350 351 351 351 351 351 351 350 351 351 352 353 352 352 352 352 352 351 350 349 351 351 350 352 352 352 352 352 352 351 350 350 350 351 350 351 351 350 350 350 350 349 349 349 350
352 352 352 352 348 349 351 351 350 350 350 349 349 350 350 349 349 348 349 351 351 350 351 352 352 352 352 351 351 352 352 351 353 352 351 352 352 351 350 350 351 351 351 350 350 351 351 351 351 351 352 353 352 352 352 352 351 350 349 349 351 352 351 351 350 350 352 351 351 351 351 350 350 350 349 350 350 350 351 349 348 349 349 349 349
353 354 354 353 348 348 350 350 349 350 349 349 349 349 349 349 349 349 350 351 351 352 351 350 350 351 351 351 351 352 352 351 352 352 351 351 352 351 350 350 351 350 350 350 350 351 351 351 352 351 352 353 352 352 351 351 350 348 347 350 352 352 351 350 350 351 351 350 350 351 351 349 349 350 350 349 349 350 351 350 349 349 349 348 347
353 354 354 352 349 348 349 349 349 349 349 350 350 348 349 349 350 350 351 351 350 351 351 350 349 349 350 351 352 352 352 352 353 352 351 351 350 350 350 351 350 350 350 350 351 351 351 351 352 351 351 352 352 352 351 349 349 347 347 351 354 352 351 349 350 351 351 349 349 351 351 350 349 349 350 350 349 349 350 350 350 349 349 348 346
352 353 352 351 350 349 349 349 349 349 349 350 349 349 350 350 350 351 351 350 350 351 351 350 349 349 350 351 352 352 352 352 352 351 350 350 350 351 350 350 349 349 349 349 350 351 350 349 350 350 350 351 351 351 350 347 347 347 349 352 352 352 351 349 350 351 351 350 348 350 351 351 349 348 349 350 349 349 350 350 349 349 348 347 347
352 351 352 352 350 349 349 350 349 349 351 351 349 349 350 350 350 350 350 351 350 350 351 350 350 350 350 351 352 352 352 351 350 349 349 349 350 350 349 349 348 348 349 348 349 350 348 346 347 348 348 349 350 350 349 347 346 347 349 350 350 351 351 349 350 350 351 350 349 350 350 350 348 347 348 349 349 349 349 349 348 347 346 346 346
351 352 353 353 351 350 349 350 350 350 352 351 349 349 350 350 350 350 350 350 349 349 351 352 351 351 351 352 352 352 352 350 349 349 349 349 350 350 348 348 348 348 348 348 349 349 346 345 347 347 347 348 348 348 347 345 344 345 347 348 350 351 350 350 350 350 349 350 350 350 350 349 347 347 347 347 348 348 348 348 348 346 346 346 346
352 354 354 352 352 350 350 351 350 350 351 351 350 351 351 350 350 350 350 349 349 350 350 352 352 352 352 352 352 352 352 351 349 348 348 348 349 349 348 348 349 349 347 348 349 349 348 346 347 346 346 345 345 345 345 343 342 343 347 349 351 352 351 351 351 350 350 349 349 349 349 348 346 346 346 346 347 347 348 347 347 347 346 346 345
352 354 354 353 352 350 350 351 351 351 351 351 350 351 350 350 350 351 351 350 350 351 350 351 352 352 352 351 352 352 352 352 350 348 347 347 348 348 348 348 348 347 348 349 350 350 349 347 347 344 342 341 341 342 342 341 339 343 349 351 351 351 351 351 351 351 350 349 349 349 349 346 345 345 344 344 343 344 346 347 347 347 347 346 345
352 354 355 353 351 350 350 351 352 352 352 351 351 351 350 350 350 351 351 350 351 351 351 351 352 352 352 352 351 351 352 352 351 349 349 349 348 348 349 349 349 348 350 351 350 349 348 348 347 344 341 340 339 339 339 338 339 343 348 349 349 350 351 349 350 350 350 350 350 350 346 343 343 343 343 341 338 338 340 343 345 347 347 347 345
352 355 355 352 351 351 351 351 352 352 352 351 351 351 350 351 350 351 351 351 351 351 352 352 351 352 352 351 350 351 351 351 351 351 351 350 350 350 350 351 351 351 352 351 349 347 348 348 347 346 343 340 338 337 337 338 340 344 346 347 347 348 349 348 349 349 350 350 350 348 342 339 339 338 337 337 337 336 338 341 343 345 346 346 345
353 354 355 353 351 352 351 350 351 351 350 350 349 349 350 350 350 351 352 351 351 351 352 351 352 352 352 352 350 350 350 349 350 351 352 351 352 352 350 352 352 352 351 350 349 348 348 347 347 345 341 336 335 336 337 338 339 342 344 345 345 345 346 347 347 348 348 348 348 346 338 335 335 334 335 338 339 340 342 345 345 345 345 346 346
353 353 354 354 353 353 351 350 349 349 349 349 349 349 349 350 351 351 350 350 350 351 351 352 352 352 352 352 350 348 349 349 350 351 352 352 353 352 351 352 352 351 350 349 349 346 345 345 345 341 335 332 333 335 335 335 335 338 342 343 343 343 346 347 346 345 347 347 348 348 341 334 334 335 338 341 341 341 343 346 346 346 346 346 346
352 352 352 352 354 353 350 348 348 348 348 349 350 350 350 351 352 351 350 350 350 350 351 352 352 352 352 353 351 349 350 350 351 352 353 353 353 352 352 351 350 350 349 347 344 342 341 342 342 339 335 334 334 334 334 334 334 338 341 341 342 343 346 346 344 344 346 347 347 344 339 335 336 337 338 340 341 341 342 344 345 345 345 345 344
352 351 350 351 353 351 347 347 348 348 349 351 352 351 351 352 352 351 351 351 351 351 352 352 353 353 352 353 353 352 352 352 352 352 353 353 352 352 351 350 351 351 349 345 342 341 341 341 340 338 337 337 337 337 338 337 338 340 341 342 343 344 345 344 343 344 346 347 344 339 338 338 339 340 342 342 344 343 343 344 344 344 345 346 345
352 351 350 350 351 350 349 349 348 349 350 352 352 351 351 351 351 352 352 351 351 352 352 353 353 352 351 352 353 353 353 352 352 352 352 352 351 351 351 351 351 349 346 344 343 342 342 342 341 340 340 339 338 338 339 339 340 342 342 343 343 344 345 343 342 344 347 348 343 339 340 341 341 343 346 346 346 345 345 346 347 346 346 347 347
352 350 349 349 349 350 350 349 349 351 352 353 352 351 351 351 351 353 353 352 352 353 353 353 354 353 353 353 352 352 353 353 352 351 350 350 350 351 351 350 348 345 344 344 343 343 343 343 342 342 342 341 338 336 338 340 341 342 343 344 345 345 344 342 343 345 348 348 342 340 342 341 342 345 347 347 348 347 346 347 347 347 346 347 347
352 351 350 350 349 349 349 349 350 350 351 352 351 351 351 352 351 352 353 353 353 353 354 354 353 352 352 352 353 352 352 351 349 347 347 348 348 348 348 347 345 345 345 345 344 343 343 342 341 342 345 347 346 343 341 342 343 343 343 345 345 345 343 343 344 345 348 346 340 340 342 342 342 343 346 346 347 347 346 346 346 347 347 348 348
353 352 351 350 350 350 348 349 349 349 350 350 351 351 352 352 351 352 352 352 352 353 354 354 353 351 350 352 352 352 351 351 351 348 345 345 346 346 346 345 345 346 345 344 344 344 343 342 343 344 348 352 353 353 350 346 345 344 344 345 344 344 344 343 344 345 349 345 337 339 341 341 342 343 345 346 346 347 346 345 346 346 348 348 348
352 352 351 350 350 350 349 348 349 350 350 350 352 352 351 352 351 352 353 352 353 353 354 354 353 353 352 352 353 352 351 351 352 349 345 344 345 345 346 346 345 345 345 345 344 345 346 345 345 345 347 350 352 353 352 348 346 345 347 346 344 344 343 343 344 346 349 343 334 336 338 339 341 343 346 347 346 347 348 346 345 345 347 348 348
352 351 350 350 350 350 349 349 350 350 349 349 351 352 351 352 351 351 353 353 353 353 354 354 353 352 352 353 353 351 348 349 351 351 350 347 345 345 345 345 345 345 346 349 349 349 350 350 349 348 347 349 349 349 350 348 346 347 346 345 344 343 341 342 345 346 348 341 331 332 334 334 337 339 344 347 348 348 346 345 345 345 345 346 346
352 350 349 350 351 352 351 351 351 350 350 349 350 351 351 352 351 352 352 352 353 354 355 355 353 350 350 352 352 351 350 351 352 351 352 351 349 348 348 348 349 347 347 351 351 351 352 352 351 351 349 349 347 345 346 344 343 344 343 343 343 343 341 342 344 347 349 340 331 331 332 332 333 333 338 344 347 347 345 344 344 344 343 346 346
351 350 350 351 351 353 351 351 351 350 350 350 350 351 349 351 353 352 349 349 352 354 355 355 354 351 350 350 352 353 353 353 352 350 350 352 352 351 351 351 353 351 348 350 350 349 351 350 349 351 349 347 344 342 343 341 340 342 343 343 342 343 342 342 344 346 348 342 332 331 332 331 332 332 334 338 340 342 342 342 343 343 344 347 347
350 350 351 352 351 352 351 350 350 350 351 351 350 349 348 350 351 351 350 349 351 353 354 354 354 352 352 352 352 351 352 352 352 351 350 351 351 351 350 350 352 351 349 350 350 349 349 349 350 351 348 345 342 341 342 342 341 341 342 342 342 344 342 341 344 347 350 346 337 334 334 334 334 334 335 336 336 338 339 340 340 342 342 344 345
349 350 351 352 351 350 351 350 351 351 351 351 350 349 348 349 349 350 352 351 351 353 353 352 350 348 349 351 350 350 350 351 352 350 349 350 349 349 349 350 350 349 350 350 350 350 349 350 351 350 349 346 343 342 342 342 341 341 343 342 342 343 342 342 342 346 350 347 341 340 340 339 339 339 339 339 340 340 341 341 341 342 342 342 343
348 349 351 352 352 351 351 352 351 351 350 350 351 350 349 350 350 350 351 350 351 353 352 351 349 347 347 348 348 348 348 350 350 349 349 349 349 350 350 349 349 350 351 350 351 351 350 351 351 351 350 347 345 344 343 341 340 342 343 342 341 342 343 345 343 344 347 346 346 344 342 343 343 343 344 344 345 345 345 345 345 345 346 346 346
348 349 350 351 351 352 352 352 352 351 350 351 352 352 352 351 352 351 350 350 351 351 351 350 350 349 348 346 346 347 347 349 350 349 350 351 351 350 350 349 349 350 351 352 352 352 352 351 351 351 350 348 347 346 344 340 340 342 343 342 343 345 346 346 345 344 345 348 350 347 344 344 343 344 346 346 347 347 347 347 347 347 347 347 347
349 349 349 350 350 351 351 352 352 351 350 352 353 352 352 352 351 351 350 350 349 349 349 351 352 352 351 350 349 347 348 350 350 350 350 351 351 350 351 350 350 351 352 354 354 352 352 351 352 352 350 349 347 346 344 342 341 341 343 343 342 346 347 345 343 342 344 348 351 349 347 346 344 344 345 345 346 347 347 347 348 347 347 347 347
349 349 350 349 350 351 351 352 351 351 351 351 352 352 352 351 351 351 351 350 348 347 348 351 353 354 355 354 352 350 351 352 351 351 351 351 351 351 352 352 353 353 354 356 355 351 351 350 352 351 351 351 347 345 345 343 343 341 341 343 342 344 347 345 343 345 346 347 349 348 348 350 347 346 348 347 345 345 346 348 348 348 348 348 347
348 349 350 349 349 350 351 352 351 350 350 350 351 352 351 350 350 351 350 348 347 347 348 351 353 354 356 355 354 354 353 354 354 352 351 351 351 353 353 354 354 354 353 355 353 351 351 351 350 350 351 351 347 345 345 343 345 345 343 344 345 347 347 346 345 346 347 345 347 346 347 350 347 347 350 349 347 346 347 349 350 349 349 349 350
348 349 350 349 349 349 350 351 351 350 350 351 351 351 349 348 350 350 349 348 347 348 349 350 351 352 355 357 356 356 355 356 356 353 351 351 351 353 354 355 354 353 354 354 352 351 352 352 351 351 351 351 349 345 345 345 344 346 346 344 347 347 345 345 344 342 344 344 344 344 345 346 346 347 347 346 347 349 349 351 351 349 349 350 350
348 350 349 348 349 349 350 351 352 352 351 352 352 351 349 349 349 349 348 347 347 347 348 349 350 352 354 357 357 357 357 357 357 355 353 352 351 353 355 355 354 353 353 352 351 351 353 353 352 352 351 350 348 345 344 344 342 343 344 343 346 347 345 346 344 342 344 345 344 344 345 346 347 348 347 346 346 348 351 351 351 349 348 347 345
349 349 348 348 349 349 350 351 352 354 354 355 356 354 351 350 350 349 348 347 347 348 348 349 351 352 354 356 356 356 356 357 357 357 354 352 352 353 354 355 354 354 354 353 352 352 353 353 351 350 350 348 347 345 343 342 342 344 344 343 345 345 345 345 345 344 344 343 344 345 344 345 346 346 346 347 346 348 352 352 352 351 347 343 343
349 349 349 349 349 349 349 351 353 355 356 356 357 355 353 352 350 350 350 348 348 349 349 351 352 353 355 356 356 356 356 357 357 356 355 353 353 353 354 356 355 355 356 355 354 353 352 352 350 350 349 348 347 345 344 344 343 344 343 343 344 343 343 345 346 346 345 343 343 343 343 343 344 343 343 345 344 347 351 351 351 351 349 346 349
348 349 349 349 350 350 351 352 354 355 357 356 356 356 355 353 351 351 351 349 349 350 351 352 354 354 356 356 356 356 357 357 357 357 355 353 354 354 355 356 355 356 357 355 355 354 353 352 351 351 350 349 348 345 344 345 345 345 343 343 345 344 344 346 347 345 344 344 343 343 343 344 345 344 343 345 345 344 347 348 347 349 351 351 354
348 349 349 349 351 351 352 353 354 356 357 356 355 355 355 354 352 353 353 351 350 350 350 351 354 355 355 357 357 356 357 357 357 358 356 354 355 355 355 357 356 357 357 354 354 353 353 353 352 352 352 351 348 344 344 346 345 344 344 344 346 346 346 346 346 345 344 343 343 344 344 344 344 344 344 345 346 344 343 345 345 347 351 352 354
349 350 349 349 353 353 352 352 353 355 356 356 355 354 354 354 353 354 354 355 353 350 350 350 352 354 355 357 358 357 357 357 356 358 358 357 356 355 356 357 356 357 358 355 354 353 353 353 354 353 352 351 348 344 345 347 345 345 346 345 344 346 348 348 347 345 344 342 342 344 344 344 343 344 345 345 345 345 342 343 345 348 350 351 353
349 351 351 350 353 353 353 354 354 354 355 355 355 354 354 353 353 354 353 354 353 351 350 350 352 355 356 357 358 357 358 358 356 355 356 359 358 356 357 357 357 356 356 355 354 354 354 354 355 354 353 353 350 345 346 348 349 347 346 347 348 348 347 345 345 345 344 342 342 343 343 343 344 344 345 345 344 344 343 344 347 350 351 350 352
351 352 352 351 353 353 353 355 355 354 355 356 355 354 354 353 350 352 353 353 353 352 351 351 355 356 356 357 358 357 358 359 358 354 355 358 358 357 357 357 358 356 355 356 356 355 355 355 355 354 354 354 351 346 346 350 353 350 350 360 363 358 355 348 342 343 344 343 342 343 343 342 343 343 344 345 344 344 344 344 347 349 349 349 351
351 352 352 351 352 354 354 355 355 355 356 356 356 356 356 353 351 350 351 352 353 353 354 353 355 354 355 358 359 358 358 359 358 357 357 359 359 358 358 357 357 357 355 356 357 357 356 356 355 354 354 356 354 348 345 348 353 353 357 365 364 365 371 360 346 343 344 344 342 341 343 341 340 342 343 343 344 344 343 342 344 345 347 349 350
351 352 352 352 353 354 354 354 355 356 356 357 357 358 357 356 356 354 352 353 353 354 356 354 354 355 355 357 358 358 358 358 357 358 358 359 359 358 360 359 357 357 356 356 357 356 356 357 356 354 353 356 356 351 348 347 348 352 355 359 363 371 373 359 352 353 344 342 344 341 342 342 342 343 343 343 343 343 343 342 342 342 345 347 349
350 351 351 352 353 355 355 355 356 357 357 359 358 358 358 358 358 356 355 356 355 355 356 354 355 356 354 356 357 358 359 358 358 359 358 358 359 358 359 360 357 357 358 356 356 355 355 356 356 355 354 354 355 353 352 349 347 349 351 354 360 365 362 355 359 364 352 342 343 342 343 343 343 344 343 344 342 342 344 344 343 343 344 345 347
350 352 351 351 354 355 356 356 356 356 358 360 358 358 359 358 357 356 356 357 356 355 354 353 354 354 354 355 356 357 358 358 357 361 360 357 358 358 357 358 358 357 356 356 355 354 353 355 356 358 355 353 354 354 355 353 350 349 348 349 348 347 352 355 360 368 370 363 349 342 343 343 343 342 342 343 343 342 343 343 344 346 347 347 348
350 351 350 352 354 356 357 356 355 356 358 359 358 359 359 358 356 355 355 355 356 357 354 353 354 353 353 355 355 357 358 358 358 361 361 358 358 359 357 358 359 357 355 356 356 354 353 355 357 356 354 353 354 354 355 355 353 351 348 350 349 345 346 350 354 359 370 374 362 350 346 343 344 343 342 343 343 342 342 341 343 345 347 348 349
349 349 350 351 355 357 357 356 356 356 358 358 359 359 360 359 356 355 355 353 356 359 356 355 355 355 355 355 356 356 357 359 359 359 360 359 358 360 359 358 359 358 355 355 354 354 355 356 357 357 356 357 356 354 354 355 353 352 351 350 350 349 346 346 349 349 356 370 373 361 349 348 349 346 343 344 342 343 342 342 343 344 347 348 348
348 348 349 352 356 358 358 357 356 357 357 358 359 359 361 361 357 356 356 353 355 358 357 357 358 358 358 357 356 355 356 358 359 358 360 360 358 359 358 358 358 357 356 356 355 354 355 356 358 359 358 357 357 356 355 355 353 352 352 351 350 352 351 348 348 348 348 358 368 362 350 350 354 350 346 345 344 345 344 343 344 345 346 348 348
348 348 349 352 356 358 358 358 356 357 358 358 358 358 360 360 358 359 358 356 357 357 356 358 359 359 360 359 358 357 356 355 357 358 359 359 358 358 357 357 358 357 355 356 356 354 354 356 357 357 358 358 357 357 356 355 353 350 350 351 352 351 351 351 350 349 348 351 364 364 351 347 350 348 348 348 346 347 347 346 347 347 347 348 347
Wind_Speed
13 14 15 16 16 14 14 13 12 12 11 10 10 10 10 9 9 10 11 9 8 10 10 11 13 13 12 12 11 12 14 14 14 13 14 15 16 17 17 16 16 18 18 17 17 17 16 15 15 16 17 18 17 18 18 18 19 19 19 19 20 20 20 20 20 20 20 20 19 18 17 17 17 16 15 16 16 17 17 17 17 18 18 17 17
15 15 16 17 16 15 14 12 11 10 10 10 10 10 9 8 8 10 10 8 7 9 10 11 12 12 11 11 11 13 14 14 14 13 14 16 16 16 16 16 17 19 19 17 17 17 16 15 15 15 16 17 18 18 18 17 18 18 19 19 20 21 20 20 19 19 19 19 19 19 18 17 17 16 15 16 15 16 16 16 17 17 17 17 17
17 16 16 16 16 14 13 11 10 9 9 10 10 9 8 8 8 10 10 8 7 8 10 11 12 12 11 11 12 13 14 14 14 14 15 15 15 15 15 16 17 20 19 17 17 16 16 15 14 15 16 16 17 17 17 17 17 17 18 18 20 20 19 19 19 18 18 18 18 18 18 18 17 17 17 16 16 16 16 17 17 18 17 17 17
17 17 16 14 14 14 13 11 10 9 9 9 8 7 6 7 7 9 9 9 9 9 10 10 10 11 12 11 12 13 13 13 13 14 14 15 16 15 16 17 18 19 19 17 16 16 15 15 14 15 15 15 16 16 17 17 16 17 17 18 19 19 19 18 18 17 17 17 17 18 18 18 17 17 17 17 17 17 17 17 17 18 17 17 17
18 17 16 14 14 15 13 12 11 9 8 8 8 7 6 7 7 8 9 10 10 10 10 10 10 10 11 11 12 14 13 13 13 14 15 16 16 15 16 17 18 18 18 17 16 16 14 14 14 14 14 14 15 15 15 16 16 16 18 18 18 18 19 18 18 17 17 17 17 18 18 17 17 17 17 17 17 17 17 17 17 17 17 16 16
19 17 17 15 15 15 13 12 11 10 8 8 8 8 8 7 6 8 9 10 9 10 10 10 10 10 11 12 13 14 13 13 13 14 16 17 16 16 17 17 18 18 17 17 16 15 14 14 14 14 14 13 14 14 15 15 15 17 18 18 17 17 18 18 19 18 17 17 18 18 17 17 16 16 17 17 17 16 16 17 17 17 16 16 15
20 18 17 16 15 14 12 11 10 10 9 8 9 9 10 10 8 8 9 9 9 10 10 10 11 11 12 13 13 14 14 14 14 14 16 17 16 16 17 17 17 17 16 16 15 15 14 14 13 13 14 13 14 14 14 15 15 17 19 18 16 17 17 17 17 18 17 17 19 19 17 17 16 15 16 16 16 15 15 15 16 16 15 14 15
21 18 17 16 15 14 12 10 9 10 9 8 9 9 11 11 10 9 9 9 9 9 10 10 11 12 11 12 12 13 14 15 14 14 16 17 16 16 17 16 16 17 16 16 15 14 14 14 13 13 14 14 14 14 14 15 16 18 18 16 15 15 16 17 17 17 17 17 18 18 17 16 15 15 15 14 15 15 14 14 15 15 14 14 14
22 19 17 16 15 13 11 10 10 9 9 9 9 9 10 11 11 9 9 9 10 10 10 10 11 11 11 11 11 12 14 14 14 15 16 17 17 17 16 16 16 17 17 17 16 14 14 14 13 13 13 14 14 13 14 15 17 18 17 17 16 14 14 17 18 16 15 16 17 18 17 15 16 15 14 13 14 14 14 13 13 14 14 13 13
21 20 18 17 15 13 11 11 10 10 9 9 10 10 10 11 11 10 9 9 10 11 11 11 11 12 12 12 12 12 14 13 14 15 16 17 17 17 17 16 17 17 17 17 16 15 14 14 13 13 13 13 13 13 13 15 16 17 16 17 16 12 12 15 16 15 15 17 18 18 16 15 16 16 14 13 13 13 13 13 13 13 13 13 12
20 20 19 18 15 13 12 12 11 10 9 9 10 10 10 11 11 10 10 9 10 12 12 11 12 13 12 12 12 13 14 13 14 16 18 18 17 17 18 17 17 17 17 17 16 15 15 14 13 13 13 13 13 13 13 13 14 14 14 16 15 11 10 13 14 15 16 17 17 16 15 15 16 15 13 13 12 12 12 12 12 12 12 12 12
20 20 19 17 15 13 12 13 13 11 10 10 10 11 11 11 11 10 10 10 11 12 12 12 13 13 13 13 14 15 15 15 14 16 18 18 18 18 18 17 17 17 16 16 15 15 14 14 13 13 13 13 13 13 12 12 12 12 13 14 14 11 9 13 15 15 16 16 16 15 15 15 15 14 12 12 11 11 11 11 11 11 11 11 10
20 19 19 17 14 13 12 14 13 12 11 10 11 11 10 10 11 11 11 12 12 12 13 13 13 13 13 13 14 15 16 17 16 16 17 18 18 18 18 17 17 16 15 14 14 14 13 13 13 13 13 13 13 12 12 11 11 12 13 14 15 12 10 13 15 15 15 15 15 15 15 15 14 13 12 11 10 10 10 10 10 10 10 10 9
20 19 18 16 13 12 13 14 12 12 12 11 11 10 10 10 10 11 11 12 13 13 14 14 14 14 14 14 14 15 16 17 18 18 18 19 19 19 18 17 16 15 14 13 13 14 13 13 13 12 12 12 12 12 11 11 11 13 14 14 14 12 11 11 14 15 14 14 14 14 14 14 13 11 11 10 9 9 8 9 9 9 9 8 8
21 19 18 16 14 12 13 13 12 12 12 12 11 10 10 10 11 12 12 12 13 13 13 14 14 14 14 15 15 16 17 17 19 19 19 21 21 19 19 19 17 16 15 14 14 14 13 12 12 12 12 11 11 11 11 11 12 12 13 13 13 13 12 11 12 13 13 14 13 13 13 13 11 10 10 9 8 9 9 9 9 9 8 8 8
20 19 18 16 14 13 12 11 12 12 12 12 10 11 11 11 12 12 12 12 13 13 14 14 14 15 16 16 15 16 18 19 19 19 18 21 21 19 19 18 17 16 15 14 14 13 12 12 11 11 11 12 12 11 11 11 12 12 13 14 14 14 14 13 11 12 12 11 11 11 12 12 11 10 10 10 9 9 9 9 9 8 9 8 8
20 19 18 16 14 14 12 11 12 13 13 12 12 12 13 13 14 13 13 14 14 15 15 15 15 16 17 17 16 17 18 19 20 19 18 18 19 18 18 17 16 15 15 15 13 13 12 12 11 12 13 13 13 12 12 12 13 14 15 15 14 13 12 12 10 11 11 11 10 9 10 11 11 10 10 9 9 8 9 8 8 7 7 7 6
20 19 17 17 16 14 14 14 13 14 13 13 14 13 13 14 13 14 15 15 15 16 16 16 16 17 18 18 19 18 17 18 19 18 17 17 16 16 16 16 16 15 14 14 14 14 13 13 13 12 13 14 14 14 13 14 16 17 16 13 12 10 10 11 10 10 11 10 9 8 9 11 10 10 10 9 8 7 7 7 7 6 6 5 5
21 19 17 17 16 15 15 15 14 14 14 13 13 14 13 13 13 15 16 17 17 16 17 17 17 17 18 20 20 18 17 17 17 16 16 16 15 15 15 15 14 13 13 13 14 14 13 13 13 13 13 13 14 14 15 17 17 16 14 12 10 9 9 11 11 10 11 9 7 7 9 9 9 9 8 8 7 6 6 6 5 5 5 4 4
20 18 16 16 15 15 14 13 14 13 15 13 12 14 14 14 14 15 17 17 17 17 17 17 18 18 19 20 19 19 18 17 16 15 14 14 14 14 14 13 12 12 13 13 13 13 13 13 13 13 12 12 13 13 15 16 15 13 13 12 11 10 8 9 11 9 9 8 5 7 8 7 7 7 7 6 5 5 5 5 4 4 4 3 3
19 18 15 16 16 15 14 14 14 13 14 13 13 14 14 14 15 16 16 17 17 17 17 17 18 18 18 18 18 18 17 16 15 14 13 13 13 13 13 13 13 14 14 14 13 13 13 13 13 13 12 12 12 13 14 14 13 12 11 11 11 10 9 10 9 9 9 6 4 6 7 6 6 6 5 5 3 3 4 3 2 2 2 3 2
18 18 14 15 17 14 14 15 16 15 14 13 13 15 15 15 16 16 16 16 16 17 17 17 17 18 18 17 16 16 16 15 15 15 14 14 14 14 14 14 15 14 14 14 13 13 13 12 12 11 11 11 11 10 11 11 10 10 10 10 10 8 7 9 9 10 9 4 4 4 4 4 4 4 4 3 2 1 2 1 1 1 2 2 3
17 18 15 14 17 16 15 16 17 16 15 15 14 15 16 15 16 16 16 16 16 16 15 15 16 17 17 16 16 15 15 14 14 14 15 15 15 15 15 15 15 14 14 13 13 13 11 10 9 8 8 8 8 6 4 7 7 8 10 10 9 7 6 8 9 9 8 3 5 4 3 3 2 3 3 2 1 1 2 2 1 2 2 2 3
19 20 17 14 18 19 16 16 16 16 15 15 14 14 16 15 16 15 14 14 14 14 14 13 14 14 15 16 15 14 15 15 14 14 14 15 15 15 15 15 15 15 14 12 11 10 8 7 6 5 5 5 4 4 5 3 5 5 7 7 6 5 6 7 9 9 6 4 6 4 3 2 2 2 1 1 2 2 3 3 2 2 2 3 4
21 21 18 14 19 20 17 16 15 15 17 17 15 15 17 15 15 15 12 13 13 12 13 13 13 14 15 15 14 14 16 15 14 12 12 13 15 14 14 14 13 12 11 9 6 4 4 3 2 2 3 3 1 2 7 7 4 5 5 5 3 5 7 8 8 7 4 6 8 5 4 3 3 2 1 1 2 2 3 3 3 3 3 4 4
21 24 22 17 18 18 18 18 15 14 16 18 17 16 17 15 14 14 14 15 14 12 12 13 13 14 14 14 15 15 14 13 11 11 11 11 11 11 10 9 7 6 7 6 3 1 1 0 2 2 2 2 0 2 2 6 6 6 5 5 5 6 7 7 7 6 3 8 9 7 6 5 5 4 3 2 1 2 4 3 3 4 4 4 5
19 26 27 23 19 16 16 18 18 16 15 17 18 16 16 16 14 14 16 18 15 12 12 13 13 13 13 14 14 13 12 12 11 11 11 10 9 8 8 7 5 4 4 4 4 3 2 2 4 3 1 2 4 5 5 7 7 7 6 5 5 5 6 6 7 5 4 9 11 8 6 6 6 5 5 4 2 2 3 3 3 4 4 4 5
17 24 26 26 24 18 15 17 18 17 16 16 16 15 15 17 17 15 14 15 14 12 12 12 12 13 13 12 12 13 13 12 11 10 10 9 9 9 7 6 6 4 3 5 5 4 3 5 6 6 4 2 5 6 6 7 8 7 7 7 6 6 7 7 5 6 5 9 12 9 8 8 8 8 7 6 5 4 4 4 5 5 4 4 5
16 20 22 24 25 24 20 19 18 17 16 16 15 14 14 15 17 16 14 14 14 13 12 11 12 14 14 12 11 12 12 11 10 10 9 9 8 7 7 6 5 3 4 5 6 6 5 5 6 4 4 3 4 5 6 7 8 7 7 8 8 7 7 6 6 8 7 8 11 11 10 10 10 10 9 8 7 7 7 6 6 6 6 6 6
17 19 21 21 22 25 24 21 19 18 18 16 16 17 16 15 15 14 14 14 15 14 13 12 11 12 11 10 11 10 11 11 10 9 8 8 7 6 7 6 5 5 5 6 6 7 6 5 5 4 4 5 4 3 4 5 7 7 7 8 9 8 7 5 7 10 7 4 8 11 11 11 11 10 10 9 9 8 8 8 7 7 7 7 7
17 18 20 20 19 20 21 19 17 18 19 16 14 15 16 16 15 14 14 14 14 14 13 12 11 11 9 9 10 10 11 11 11 10 9 8 8 8 7 7 7 7 7 8 7 6 7 5 4 5 5 4 2 0 3 6 7 7 7 7 8 7 6 6 8 9 8 4 4 8 11 11 10 10 9 9 8 8 8 8 8 8 8 9 9
16 17 18 19 19 19 19 18 16 16 18 15 14 14 13 15 15 14 15 14 14 13 12 11 12 11 10 10 10 10 11 11 10 10 9 8 8 9 8 7 8 8 7 8 8 7 6 4 4 5 4 1 1 1 2 6 6 7 8 8 8 6 5 7 8 8 8 6 2 3 6 8 9 9 9 9 8 7 7 8 9 9 9 9 10
16 17 17 18 18 18 18 17 16 17 17 16 14 13 13 13 13 13 14 13 12 13 12 12 12 11 9 10 10 10 11 9 8 9 9 8 7 9 9 8 8 7 6 7 8 6 4 3 2 2 1 1 1 1 1 6 7 7 8 8 8 7 5 7 9 6 6 8 5 1 2 5 8 6 6 8 8 8 8 8 9 9 10 10 10
16 17 17 18 18 17 17 17 17 17 16 16 14 13 12 13 13 12 13 13 13 13 13 12 11 10 9 10 9 10 9 7 8 8 9 8 7 8 8 7 7 6 5 6 6 5 6 5 3 2 3 3 1 1 2 6 5 5 8 9 6 5 5 7 9 6 6 8 7 4 2 4 7 6 3 6 7 8 9 9 9 9 10 11 11
16 17 17 17 17 17 17 17 17 16 16 15 14 14 13 13 13 12 12 13 13 13 13 12 10 10 9 9 8 8 8 7 7 8 8 7 7 7 7 6 7 6 6 7 7 6 7 8 7 5 5 6 4 2 5 4 4 6 8 9 5 5 7 6 7 7 8 9 7 6 7 5 4 5 3 4 7 8 8 9 10 9 10 12 12
16 17 17 16 16 16 17 17 17 16 15 14 13 14 13 13 12 12 12 13 13 13 13 13 11 11 9 8 8 7 7 6 6 7 8 7 7 7 5 6 6 5 5 7 7 7 7 7 8 7 8 9 4 1 5 4 7 6 5 8 6 5 6 4 6 9 8 7 5 5 5 4 3 4 3 1 5 7 7 8 9 9 10 12 13
16 17 16 16 17 16 17 17 17 16 15 14 12 13 13 13 12 12 11 11 12 12 12 12 12 12 10 9 8 7 7 6 6 6 6 6 7 7 6 5 4 3 4 5 6 7 5 5 7 6 7 8 6 2 4 4 6 7 6 8 5 4 5 7 10 8 6 6 5 3 4 5 3 4 3 2 5 7 7 8 7 7 10 12 13
16 16 16 16 16 16 17 17 16 15 14 13 12 12 13 12 12 11 11 11 11 11 11 10 10 11 11 10 9 8 7 6 6 7 7 8 8 8 6 4 2 2 3 4 5 6 5 4 6 5 6 6 8 6 5 3 2 3 8 8 6 6 7 7 8 5 5 7 5 3 4 5 3 6 6 3 5 9 8 7 6 5 7 10 12
16 16 16 16 16 16 16 16 15 14 13 13 13 12 11 11 11 10 10 11 11 12 11 10 10 10 10 11 9 8 8 7 7 6 8 8 8 8 5 3 3 2 3 3 3 4 5 5 4 4 5 5 5 5 6 4 4 4 9 10 6 8 7 4 4 4 6 6 4 3 3 4 4 7 9 4 4 9 9 7 7 6 5 6 8
15 16 16 16 16 16 17 16 16 15 13 13 13 12 9 10 10 9 9 9 10 12 11 10 10 9 9 10 9 8 8 9 7 5 6 8 8 7 4 3 3 1 2 4 4 3 3 4 3 4 5 6 3 2 1 2 4 5 10 11 7 6 6 3 4 4 6 4 2 3 3 6 6 7 8 6 5 6 7 7 6 5 5 4 5
16 17 16 16 15 16 17 16 16 15 13 12 12 10 9 9 10 8 6 5 7 10 9 9 9 8 9 9 8 8 8 8 7 5 6 6 7 7 4 3 4 1 3 5 5 4 2 3 4 5 6 7 5 2 1 3 4 4 7 10 8 6 5 5 3 1 3 4 3 4 6 7 7 8 7 7 6 5 6 6 4 5 6 4 4
17 17 16 16 16 16 16 16 16 14 13 12 11 10 8 9 10 8 6 4 5 7 7 9 9 8 9 9 8 8 8 7 6 7 7 5 5 6 4 3 5 3 3 3 2 2 1 3 4 6 7 7 6 3 4 4 1 3 6 7 7 4 5 5 2 1 3 4 6 6 5 7 7 7 4 4 7 3 4 6 5 5 7 5 5
18 17 16 17 16 16 16 15 15 14 13 12 11 11 9 9 9 8 8 7 5 5 7 9 9 8 9 8 9 8 8 7 6 6 7 5 4 5 5 3 3 3 2 3 2 1 1 2 3 4 8 8 4 2 4 5 5 7 8 5 2 1 4 4 3 3 2 2 6 5 3 7 6 4 1 3 3 1 3 5 4 5 7 6 6
18 18 17 17 17 17 17 16 15 14 14 13 12 12 10 9 8 8 9 8 7 7 8 9 8 9 9 9 9 9 8 7 7 7 6 5 4 4 6 5 3 2 2 3 3 1 1 2 1 2 6 9 7 2 3 5 8 8 7 3 1 1 3 2 5 5 6 6 6 6 3 6 4 2 2 2 1 1 3 4 5 6 7 6 7
18 18 18 17 17 18 18 17 16 15 15 14 13 13 11 10 9 8 9 9 8 9 9 9 9 9 9 9 9 9 8 8 7 6 6 6 5 3 4 5 4 2 2 2 2 2 1 1 0 2 3 6 8 5 3 4 6 7 6 4 1 2 1 2 4 3 5 6 4 5 2 3 3 2 3 1 3 1 2 3 5 8 8 7 8
18 18 19 18 17 18 18 17 16 15 16 15 14 13 12 11 11 9 9 9 9 10 9 9 10 10 9 9 9 9 8 8 6 5 5 5 5 4 3 4 4 3 2 1 1 1 2 3 1 3 4 4 5 7 6 3 3 5 7 6 3 3 4 3 1 2 3 6 5 3 2 1 2 3 1 2 2 1 2 3 5 7 6 7 9
19 19 19 18 18 19 18 18 17 16 17 16 14 14 12 11 10 9 8 8 7 7 8 9 9 9 9 9 9 8 7 7 6 6 4 4 4 4 3 3 3 3 3 1 1 1 2 3 2 3 2 3 4 6 9 7 3 1 4 4 2 5 7 5 2 1 1 3 6 3 1 1 0 1 1 3 3 1 2 3 4 5 5 6 7
19 19 19 19 20 20 19 18 18 17 17 17 15 14 13 12 10 8 8 8 7 6 7 7 7 8 9 9 9 9 8 7 7 6 4 4 4 3 4 3 1 2 2 2 2 1 3 3 2 2 2 3 5 5 6 7 7 5 2 3 3 3 5 5 4 2 1 1 3 3 3 5 5 3 2 1 2 1 1 2 3 4 4 4 6
20 20 19 19 20 20 20 18 18 17 18 18 16 14 13 12 11 9 8 9 8 7 7 7 6 7 9 8 9 9 7 6 6 5 4 4 4 3 3 2 1 1 2 2 1 1 2 2 2 1 2 3 3 3 4 5 5 5 3 4 5 3 1 0 2 3 2 0 1 2 5 7 5 4 5 4 2 2 3 3 5 5 3 3 6
20 19 19 19 20 20 19 19 18 17 18 18 16 14 13 12 11 10 9 9 8 7 8 9 8 9 8 7 9 10 7 6 6 6 5 5 4 4 3 3 2 2 1 2 1 2 2 2 2 2 1 1 1 1 3 5 5 4 3 1 2 3 3 2 4 5 2 1 2 1 4 4 4 4 3 4 5 5 4 4 6 6 4 4 6
20 20 19 20 20 20 19 19 18 18 19 18 17 15 13 13 12 11 10 9 8 8 9 10 8 8 8 7 7 8 8 8 6 6 6 5 5 5 4 3 3 2 2 2 2 2 3 3 2 2 2 1 0 1 3 4 4 4 4 0 2 3 5 9 10 8 9 5 2 2 5 4 5 6 5 4 6 7 6 5 6 7 5 3 4
Wind_Direction
115 117 120 113 103 99 96 93 92 94 99 100 100 99 100 100 101 98 95 95 95 95 97 100 100 102 106 103 101 103 100 102 107 107 108 105 106 106 105 108 110 105 100 99 99 97 96 96 97 99 98 96 95 95 94 95 98 100 98 97 96 95 94 93 92 91 90 91 89 87 87 88 89 88 89 88 88 88 87 88 89 89 88 88 89
121 121 122 115 108 105 103 104 104 106 107 106 105 106 112 112 105 95 93 96 96 99 100 99 100 105 108 108 107 104 101 103 107 109 109 108 109 109 110 111 107 104 101 98 99 97 96 95 96 98 98 97 95 96 97 97 99 100 99 99 99 98 97 96 95 95 94 93 92 91 92 91 91 91 90 89 88 88 89 89 89 90 89 90 90
122 123 124 117 110 106 106 108 108 107 107 109 111 115 120 117 108 100 99 98 95 98 99 99 104 108 108 108 108 104 103 106 108 110 110 111 112 110 112 110 106 106 103 98 97 96 96 95 93 96 97 97 97 97 99 100 101 102 102 101 100 98 98 98 96 93 91 91 91 90 91 90 91 92 91 90 90 89 89 89 90 90 89 89 89
122 124 124 118 113 109 109 111 110 110 110 111 115 121 116 111 111 106 102 99 96 98 101 103 107 110 111 112 111 107 106 107 108 109 111 114 114 113 113 108 106 106 102 99 99 97 98 97 93 93 96 98 99 99 99 101 103 106 105 103 101 99 101 101 98 96 93 92 91 90 89 89 89 91 92 92 91 91 92 91 90 91 90 89 87
123 124 122 118 117 114 112 115 114 115 115 119 123 118 108 107 116 114 105 99 99 102 107 109 109 112 114 115 114 111 109 107 106 107 112 117 115 113 113 107 105 104 102 102 102 100 101 100 97 96 96 98 100 100 100 101 104 108 108 106 103 100 103 103 101 102 96 93 92 89 90 90 90 90 91 91 91 92 93 93 91 91 90 89 88
124 124 123 119 119 116 114 116 115 115 117 123 119 111 111 112 119 121 111 105 107 109 114 118 118 118 116 116 114 111 111 110 108 111 116 118 115 111 110 107 105 102 102 104 104 103 104 102 101 100 100 99 100 101 102 102 105 109 110 106 101 99 101 102 103 102 97 98 98 92 91 91 91 91 90 90 92 91 91 93 92 90 89 89 89
123 122 122 121 121 117 114 114 114 116 118 120 114 110 111 110 116 119 116 112 112 115 118 120 124 123 117 115 113 110 111 111 112 116 117 116 112 108 108 108 107 104 103 104 102 100 101 101 100 101 100 99 99 100 101 103 106 111 112 106 99 99 100 103 103 97 94 99 100 95 92 92 92 90 91 92 92 91 90 92 91 90 89 88 88
122 120 118 119 119 117 113 111 110 113 113 112 108 106 103 102 106 107 115 119 117 119 118 116 121 121 117 116 113 111 113 114 116 116 114 113 112 109 110 112 111 109 107 105 101 98 99 99 100 100 99 99 98 100 102 105 109 113 113 104 97 96 97 102 103 96 94 98 99 99 96 93 93 91 91 91 90 91 90 88 89 90 89 87 87
119 117 117 117 116 115 112 110 108 108 109 106 99 95 94 97 101 102 108 118 121 121 119 118 119 118 118 119 115 113 113 117 120 118 116 113 114 115 116 116 113 110 109 106 101 100 101 102 103 103 104 103 102 102 104 107 111 113 109 101 96 91 89 95 99 98 99 98 94 98 97 93 94 92 91 89 88 90 89 86 88 90 89 90 89
118 115 115 114 116 115 113 114 112 113 112 104 95 90 91 94 98 100 102 109 118 120 119 119 121 121 121 121 120 117 112 115 118 117 117 116 117 118 117 117 113 110 109 107 103 102 103 104 105 106 108 108 108 107 108 111 113 115 112 107 99 89 91 95 95 98 102 98 93 95 98 97 95 93 92 90 88 90 90 90 91 91 89 90 91
115 114 115 115 118 117 117 117 113 111 108 97 91 93 97 99 100 101 101 101 105 114 120 122 124 124 125 126 124 119 112 116 118 114 115 119 120 117 118 117 112 111 111 108 104 105 104 104 106 108 109 110 111 112 114 115 115 116 115 113 102 92 99 102 100 104 105 101 99 98 97 97 95 94 94 92 91 91 91 91 91 90 89 89 91
112 113 115 117 118 116 118 114 109 104 101 95 89 94 97 98 102 102 101 101 102 111 121 124 123 122 125 125 123 119 115 117 117 114 117 120 120 119 121 116 110 111 111 107 104 106 107 108 108 108 110 110 113 116 118 117 115 112 112 110 101 92 95 103 107 107 103 102 101 98 98 98 96 96 95 94 93 92 92 91 90 91 91 91 93
113 114 114 115 115 114 113 108 106 102 100 94 90 94 95 98 105 106 103 105 109 115 122 124 122 119 120 119 118 117 116 117 118 117 117 116 117 117 116 111 108 109 108 107 107 110 110 110 110 111 112 113 115 118 118 117 114 112 113 107 98 93 91 96 101 102 99 101 101 101 102 99 96 96 96 94 91 90 91 90 91 92 92 92 91
113 113 114 114 114 112 107 104 103 102 99 93 93 92 92 96 104 106 105 108 114 119 122 123 121 118 118 118 119 117 115 118 121 121 120 119 118 117 119 120 118 118 118 118 117 115 113 112 112 112 112 115 118 119 119 118 117 118 117 109 101 97 96 95 95 98 99 99 100 103 103 99 98 97 95 92 89 92 96 98 99 98 95 93 91
114 114 116 115 116 111 104 105 104 101 99 97 97 95 92 92 97 104 106 110 115 117 117 118 118 117 117 118 122 121 119 120 121 123 125 125 124 125 128 129 128 128 128 125 122 119 116 116 114 112 112 115 119 121 120 118 119 121 116 106 99 95 95 95 93 94 96 98 101 103 103 99 98 96 93 91 89 91 94 97 99 98 95 92 90
115 116 116 116 114 108 105 107 105 101 101 102 100 96 92 93 98 103 106 110 114 116 116 116 116 117 116 117 123 122 119 119 119 121 122 123 126 129 127 125 126 128 127 125 124 123 122 120 116 112 111 114 117 119 119 117 117 118 114 107 103 103 105 101 95 96 97 98 98 96 99 99 97 93 90 88 87 89 92 92 94 95 93 90 87
112 114 116 115 109 107 110 111 107 105 104 102 98 93 91 94 100 105 108 111 115 119 118 116 117 117 117 118 120 117 116 117 116 116 116 115 119 122 122 123 125 126 125 125 125 126 125 121 117 112 111 112 113 114 114 112 111 113 114 111 112 113 110 102 99 102 102 101 98 98 101 100 97 93 91 92 91 92 94 94 95 95 94 96 96
108 114 119 115 111 111 115 112 110 110 106 98 92 91 93 96 102 108 110 111 113 116 118 118 118 118 119 119 118 115 111 109 109 112 114 114 115 118 120 122 122 121 120 122 125 123 121 116 114 111 112 112 112 112 108 106 108 110 111 110 112 109 101 103 106 103 103 105 109 115 110 103 99 97 96 96 93 92 94 97 97 96 94 91 90
107 114 121 117 115 116 115 111 109 109 102 96 92 92 96 101 106 110 110 111 112 115 117 119 119 118 118 117 116 115 110 107 108 112 115 116 117 117 118 120 117 116 117 120 122 120 116 113 113 112 113 113 112 109 105 105 107 107 105 99 97 95 96 108 109 100 101 108 114 114 107 104 104 102 98 93 90 89 90 93 93 88 87 79 70
107 113 120 120 119 116 116 111 109 106 98 97 99 97 98 105 109 109 111 113 114 117 119 120 118 116 114 113 114 114 113 112 111 113 115 117 118 117 118 119 116 117 119 120 121 120 117 114 113 112 111 110 107 106 107 107 106 104 100 92 84 77 81 99 103 98 102 109 109 107 106 106 107 104 99 92 87 87 86 83 74 67 74 71 65
109 112 120 125 122 118 122 121 114 108 104 104 106 107 108 110 111 111 115 115 117 120 119 119 116 115 114 113 113 113 114 115 116 117 118 118 118 119 119 118 117 120 122 123 124 123 120 116 112 111 108 104 99 99 105 107 103 102 97 89 76 65 73 91 98 105 110 108 100 105 110 112 112 106 103 100 91 82 86 96 92 65 68 55 42
115 116 129 135 129 128 129 125 118 113 113 112 112 115 115 114 115 115 117 118 121 122 120 119 117 117 118 116 114 114 118 119 119 118 117 116 116 119 120 118 118 119 121 122 121 120 117 114 112 110 107 104 99 95 99 101 100 99 92 82 72 69 84 95 97 107 116 102 78 105 113 112 113 104 102 104 99 75 65 99 109 49 39 26 10
122 122 137 141 132 135 129 124 122 119 119 118 119 118 118 119 120 121 122 123 123 123 123 124 121 118 117 116 117 120 122 121 121 121 120 117 116 119 119 118 116 113 114 116 117 117 114 111 110 110 111 114 115 119 105 86 94 103 94 82 81 93 99 104 101 100 113 82 50 87 105 96 96 87 88 69 49 24 13 10 14 29 5 347 343
127 122 136 136 129 136 131 129 132 130 123 121 125 122 122 124 126 128 127 129 128 129 129 129 129 125 120 118 121 127 127 125 123 122 121 119 119 121 121 119 116 112 111 110 111 109 104 99 98 102 105 106 115 163 184 137 99 99 93 84 92 115 97 96 103 102 109 57 33 53 60 57 54 41 51 22 17 6 347 346 343 337 324 318 318
132 123 135 131 129 138 136 138 141 138 129 124 127 127 128 126 127 131 132 137 136 136 132 126 126 124 125 125 126 128 124 120 117 119 122 119 118 120 121 118 115 115 110 106 105 88 79 70 35 18 68 87 72 209 195 178 125 79 81 88 95 116 96 81 92 107 97 38 28 36 33 23 13 353 342 1 7 342 323 329 333 319 315 314 311
133 127 138 134 131 142 144 144 143 140 132 125 124 125 129 127 127 131 136 142 140 139 135 132 128 120 124 128 129 127 119 116 121 128 130 127 124 124 127 125 120 119 109 114 144 154 63 329 294 288 279 208 205 337 180 155 121 92 92 99 84 91 97 91 95 106 66 35 33 33 29 23 19 6 356 0 340 312 316 329 331 329 334 326 322
127 127 138 138 135 146 146 143 142 140 135 130 129 129 129 131 136 134 131 134 135 136 136 139 134 127 129 130 132 133 129 129 134 133 130 136 142 144 150 147 147 149 118 111 138 153 143 90 65 57 14 186 125 87 104 116 109 104 101 95 84 86 95 94 104 121 77 40 39 38 38 35 37 38 29 26 18 342 340 348 347 352 348 331 328
127 126 136 139 141 147 134 129 140 142 138 139 138 132 129 135 141 139 135 133 132 133 134 134 131 135 140 137 139 138 136 137 140 142 143 151 151 148 150 140 144 152 111 90 88 89 98 77 54 43 47 126 135 112 113 121 118 115 113 106 89 81 87 84 93 125 99 48 45 50 55 54 54 57 53 46 44 39 32 28 20 17 9 351 343
129 128 134 138 143 146 136 130 141 142 135 142 147 138 134 137 136 139 148 148 143 141 138 132 127 133 134 134 139 138 138 141 145 144 142 145 139 136 131 118 121 113 89 87 76 64 73 72 56 50 42 62 120 131 140 134 126 121 125 125 108 88 93 94 92 104 97 52 52 61 63 64 63 60 61 57 54 52 43 38 31 22 14 6 355
130 129 131 135 141 143 140 138 144 146 139 142 150 144 142 141 134 138 147 144 138 138 140 136 128 129 131 134 139 138 137 137 139 135 129 131 130 125 116 111 109 98 83 77 76 70 74 73 70 75 42 48 94 147 152 120 110 108 113 119 110 103 104 111 113 111 112 69 57 66 64 63 64 62 60 57 52 48 41 34 27 18 9 2 355
130 130 131 137 140 135 135 137 140 143 140 140 142 138 138 139 138 142 144 142 139 138 137 135 128 128 134 137 136 136 131 129 131 132 131 128 126 119 109 106 95 81 69 65 65 56 65 70 67 78 67 63 79 6 111 105 109 108 105 107 102 104 106 115 125 115 108 92 49 61 65 61 62 64 59 55 50 42 37 29 19 15 8 359 354
130 129 131 137 136 130 130 133 134 134 134 136 136 133 133 134 136 137 138 144 144 139 132 130 128 126 127 128 130 133 127 124 126 125 124 117 112 109 101 95 83 73 70 68 62 49 61 72 52 77 95 100 60 345 137 114 122 122 107 101 98 98 97 104 108 95 95 108 118 56 61 59 58 65 62 53 49 42 32 26 21 16 11 6 1
130 131 136 135 131 131 131 130 133 134 135 136 135 135 134 132 132 131 135 140 138 133 130 130 130 126 121 117 119 121 118 117 114 111 113 108 103 102 93 84 79 76 79 72 69 60 59 78 46 29 316 292 53 329 145 99 107 126 117 105 101 95 90 102 102 97 109 115 120 89 30 47 42 40 47 39 40 46 39 29 26 25 22 17 13
131 137 138 134 132 134 133 132 135 138 137 137 137 136 134 133 133 135 138 136 133 130 130 132 131 126 120 115 114 116 117 117 111 108 107 102 103 102 90 87 85 76 69 65 76 73 58 65 48 9 333 327 1 351 84 104 90 70 90 100 105 108 94 101 106 104 119 111 103 100 79 41 24 8 18 37 35 42 46 40 31 32 34 28 24
136 139 135 133 136 136 134 134 135 135 135 136 137 135 136 137 137 139 139 136 136 135 135 136 134 130 125 121 119 119 120 116 109 108 107 101 99 100 92 93 88 78 68 67 75 64 53 52 35 18 350 344 335 23 62 96 108 72 80 92 91 112 102 106 123 109 109 105 89 91 89 74 42 15 13 50 45 38 40 43 39 35 39 38 31
138 135 135 137 136 135 135 134 134 133 134 134 134 135 139 141 140 140 141 142 139 139 141 141 140 138 134 128 121 120 121 116 113 112 114 114 105 102 100 90 82 82 76 73 78 63 51 43 33 18 356 0 344 116 89 97 125 119 115 109 92 97 93 85 115 104 98 99 91 98 81 67 62 26 6 26 44 35 27 36 42 40 45 46 34
137 134 137 138 134 136 137 135 134 134 135 133 130 133 137 139 142 142 145 146 141 140 142 141 143 141 136 133 127 125 124 121 127 120 109 116 122 122 117 102 93 106 88 70 69 66 61 34 42 40 9 14 350 320 135 138 137 143 143 123 101 95 82 62 84 93 82 86 100 127 81 52 41 47 81 111 46 41 31 29 29 32 44 50 40
138 138 140 138 136 139 138 134 134 134 133 133 129 130 137 142 145 145 145 145 141 140 139 137 140 137 135 137 136 133 131 131 135 122 102 105 122 125 121 122 119 83 65 68 57 55 67 46 38 33 12 7 345 6 84 78 33 122 126 111 83 95 104 83 88 109 106 92 84 105 96 85 76 66 83 114 59 48 43 36 29 30 43 48 43
143 143 141 139 138 137 133 132 135 135 134 136 134 136 143 144 144 143 143 142 137 139 143 139 134 134 138 139 139 139 141 143 135 114 105 110 116 118 126 132 109 71 59 90 88 50 55 50 12 356 15 350 329 36 65 46 21 58 98 103 82 87 103 110 97 110 134 114 90 126 106 89 99 67 57 74 62 41 46 61 55 42 29 38 42
146 143 141 141 138 135 134 136 139 137 137 140 138 141 145 140 145 145 138 133 132 140 148 148 139 133 140 142 141 146 145 143 139 118 113 122 122 123 142 131 107 95 88 98 100 69 36 28 356 325 338 329 324 105 36 36 94 79 91 105 109 96 97 121 102 103 148 144 104 146 84 68 98 79 57 70 71 39 52 71 59 30 2 9 28
147 146 148 146 142 141 142 144 143 142 144 146 144 145 144 138 142 140 132 125 129 145 153 153 151 145 148 149 143 148 146 140 147 141 119 113 114 124 149 138 129 107 64 76 71 63 19 357 345 322 318 327 351 103 82 56 105 121 112 113 117 109 91 109 108 71 171 165 129 110 81 87 101 79 58 61 71 59 46 40 17 12 14 10 11
151 153 155 151 149 149 148 148 147 150 150 149 149 143 138 144 148 142 141 138 135 156 160 148 148 150 154 153 145 152 151 144 155 152 136 121 116 132 146 120 121 108 51 71 70 66 5 335 323 331 338 329 340 47 61 32 42 126 116 115 120 100 51 81 88 308 227 186 140 121 108 118 98 63 54 64 73 63 7 5 348 2 21 22 15
157 158 158 155 155 153 153 152 150 154 151 147 148 140 135 148 154 153 152 149 148 162 159 147 142 146 157 158 155 159 156 153 156 148 145 143 128 138 148 135 124 134 163 162 144 154 281 318 313 333 345 342 344 82 70 29 31 73 79 75 110 58 32 36 9 39 4 336 108 115 133 122 92 40 89 132 91 51 349 8 6 10 23 32 28
162 162 162 162 160 157 158 158 153 155 154 149 145 139 138 141 139 150 158 156 161 161 151 152 153 154 163 164 162 165 160 158 162 156 158 153 142 150 148 142 139 143 158 153 144 168 274 313 357 351 345 349 358 53 93 53 42 60 81 73 329 19 56 333 324 6 349 342 92 103 79 103 111 26 74 120 134 71 12 11 14 17 23 31 20
167 165 167 167 163 161 161 161 156 156 157 152 149 143 141 139 128 136 150 147 160 167 156 157 163 162 169 172 167 170 166 162 164 160 160 156 154 151 126 132 157 180 169 150 186 210 187 186 322 24 17 358 355 14 67 84 57 68 107 128 81 45 125 253 295 325 332 343 85 120 88 81 118 82 53 189 194 152 346 341 358 3 4 14 10
171 169 171 170 164 162 163 162 157 157 155 153 157 152 146 151 144 141 148 149 160 172 163 158 167 170 170 169 166 171 170 163 164 161 159 158 150 142 126 139 156 175 204 220 271 244 171 149 110 31 49 32 9 9 14 51 101 114 128 137 125 129 166 174 225 287 322 337 359 87 142 222 160 117 48 229 186 59 321 307 345 349 343 0 7
174 172 173 170 163 162 164 164 160 158 156 157 161 154 151 159 155 151 156 157 160 169 165 157 169 178 167 159 164 171 169 163 165 160 155 154 146 153 166 150 144 173 203 241 310 242 166 142 94 39 52 42 31 13 3 18 38 136 136 131 120 146 157 150 157 246 313 316 330 0 154 264 257 147 191 194 167 63 317 299 327 328 314 344 357
174 173 174 169 162 163 165 164 163 160 159 161 159 155 158 160 157 157 156 155 152 149 154 149 154 169 160 155 163 168 173 176 170 161 157 164 157 163 170 153 158 169 163 247 279 145 133 134 115 67 72 50 37 15 359 14 7 354 54 36 6 144 163 164 169 167 81 341 327 320 318 354 2 347 325 212 168 120 16 323 301 303 301 326 336
175 173 174 167 160 163 166 165 166 162 160 161 160 159 160 159 162 162 152 155 155 142 147 147 141 152 155 161 164 163 179 186 170 171 178 171 165 171 171 167 183 136 130 246 263 120 129 132 133 120 83 59 32 354 353 13 347 339 25 10 351 10 33 237 175 139 110 132 10 312 320 343 347 345 348 345 332 320 342 319 289 288 276 295 318
175 174 171 165 161 165 167 166 167 164 163 163 162 163 160 159 165 160 150 156 161 160 160 154 146 148 150 158 162 161 177 183 169 182 189 179 186 191 172 171 194 189 176 206 174 147 180 176 180 187 153 74 35 320 350 356 326 328 0 1 354 354 347 3 35 49 43 179 114 302 298 324 315 307 317 324 321 305 296 298 294 291 288 305 317
174 173 168 163 164 168 167 167 169 167 166 166 165 165 162 162 166 161 154 157 164 166 159 152 150 157 158 160 168 169 176 183 182 188 191 188 193 192 178 183 195 186 177 199 194 181 179 176 194 187 164 189 288 321 343 331 309 321 320 291 40 350 11 36 39 22 328 300 130 206 248 229 253 272 279 290 302 300 292 295 306 310 312 322 314